OK,134,19,837,134,2014-10-01T01:40:00,0,28072607,187642
OK,134,19,837,134,2014-10-01T01:45:00,0,28073054,187642
OK,134,19,837,134,2014-10-01T01:50:00,0,28073503,187642
OK,134,19,837,134,2014-10-01T01:55:00,0,28073821,187642
OK,134,19,837,134,2014-10-01T02:00:00,0,28074269,187642
OK,134,19,837,134,2014-10-01T02:05:00,0,28074712,187642
OK,134,19,837,134,2014-10-01T02:10:00,0,28075158,187642
OK,134,19,837,134,2014-10-01T02:20:00,0,28075607,187642
OK,134,19,837,134,2014-10-01T02:25:00,0,28076439,187642
OK,134,19,837,134,2014-10-01T02:30:00,0,28076888,187642
OK,134,19,837,134,2014-10-01T02:35:00,0,28077337,187642
OK,134,19,837,134,2014-10-01T02:40:00,0,28077743,187642
OK,134,19,837,134,2014-10-01T02:45:00,0,28078189,187642
OK,134,19,837,134,2014-10-01T02:50:00,0,28078634,187642
OK,52,50,837,52,2014-10-01T02:55:00,1,28079083,187642
OK,52,50,837,52,2014-10-01T03:00:00,0,28079525,187642
OK,52,50,837,52,2014-10-01T03:05:00,0,28079974,187642
OK,52,50,837,52,2014-10-01T03:10:00,0,28080312,187642
OK,52,50,837,52,2014-10-01T03:15:00,0,28080757,187642
OK,52,50,837,52,2014-10-01T03:20:00,0,28081206,187642
OK,52,50,837,52,2014-10-01T03:25:00,0,28081653,187642
OK,52,50,837,52,2014-10-01T03:30:00,0,28082102,187642
OK,52,50,837,52,2014-10-01T03:35:00,0,28082538,187642
OK,52,50,837,52,2014-10-01T03:40:00,0,28082968,187642
OK,52,50,837,52,2014-10-01T03:45:00,0,28083416,187642
OK,73,36,837,73,2014-10-01T03:50:00,1,28083865,187642
OK,73,36,837,73,2014-10-01T03:55:00,0,28084308,187642
OK,73,36,837,73,2014-10-01T04:00:00,0,28084736,187642
OK,73,36,837,73,2014-10-01T04:05:00,0,28085180,187642
OK,73,36,837,73,2014-10-01T04:10:00,0,28085626,187642
OK,73,36,837,73,2014-10-01T04:15:00,0,28086074,187642
OK,60,43,837,60,2014-10-01T04:20:00,1,28086517,187642
OK,83,31,837,83,2014-10-01T04:25:00,2,28086965,187642
OK,106,24,837,106,2014-10-01T04:30:00,1,28087410,187642
OK,106,24,837,106,2014-10-01T04:35:00,0,28087859,187642
OK,104,25,837,104,2014-10-01T04:40:00,1,28088287,187642
OK,120,21,837,120,2014-10-01T04:45:00,2,28088732,187642
OK,148,17,837,148,2014-10-01T04:50:00,4,28089164,187642
OK,165,15,837,165,2014-10-01T04:55:00,6,28089611,187642
OK,190,13,837,190,2014-10-01T05:05:00,2,28090060,187642
OK,190,13,837,190,2014-10-01T05:10:00,2,28090853,187642
OK,154,17,837,154,2014-10-01T05:15:00,2,28091302,187642
OK,139,18,837,139,2014-10-01T05:20:00,3,28091722,187642
OK,139,18,837,139,2014-10-01T05:25:00,1,28092168,187642
OK,169,15,837,169,2014-10-01T05:30:00,3,28092613,187642
OK,179,14,837,179,2014-10-01T05:35:00,4,28093054,187642
OK,187,14,837,187,2014-10-01T05:40:00,5,28093484,187642
OK,187,14,837,187,2014-10-01T05:45:00,0,28093933,187642
OK,174,15,837,174,2014-10-01T05:50:00,1,28094348,187642
OK,177,14,837,177,2014-10-01T05:55:00,5,28094789,187642
OK,176,14,837,176,2014-10-01T06:00:00,8,28095236,187642
OK,165,15,837,165,2014-10-01T06:05:00,7,28095685,187642
OK,136,19,837,136,2014-10-01T06:10:00,4,28096101,187642
OK,107,24,837,107,2014-10-01T06:15:00,3,28096547,187642
OK,167,15,837,167,2014-10-01T06:20:00,4,28096984,187642
OK,143,18,837,143,2014-10-01T06:25:00,3,28097430,187642
OK,132,19,837,132,2014-10-01T06:30:00,2,28097879,187642
OK,131,20,837,131,2014-10-01T06:35:00,3,28098318,187642
OK,187,14,837,187,2014-10-01T06:40:00,3,28098761,187642
OK,192,13,837,192,2014-10-01T06:45:00,5,28099208,187642
OK,192,13,837,192,2014-10-01T06:50:00,7,28099555,187642
OK,149,17,837,149,2014-10-01T06:55:00,3,28100000,187642
OK,176,14,837,176,2014-10-01T07:00:00,3,28100311,187642
OK,172,15,837,172,2014-10-01T07:05:00,4,28100756,187642
OK,183,14,837,183,2014-10-01T07:10:00,2,28101130,187642
OK,100,26,837,100,2014-10-01T07:15:00,2,28101576,187642
OK,100,26,837,100,2014-10-01T07:20:00,2,28102013,187642
OK,143,18,837,143,2014-10-01T07:30:00,5,28102461,187642
OK,192,13,837,192,2014-10-01T07:35:00,3,28103335,187642
OK,160,16,837,160,2014-10-01T07:40:00,3,28103781,187642
OK,183,14,837,183,2014-10-01T07:45:00,4,28104225,187642
OK,177,14,837,177,2014-10-01T07:50:00,4,28104667,187642
OK,148,17,837,148,2014-10-01T07:55:00,0,28105111,187642
OK,148,17,837,148,2014-10-01T08:00:00,0,28105553,187642
OK,104,25,837,104,2014-10-01T08:05:00,2,28106000,187642
OK,134,19,837,134,2014-10-01T08:10:00,2,28106438,187642
OK,155,16,837,155,2014-10-01T08:15:00,0,28106846,187642
OK,172,15,837,172,2014-10-01T08:20:00,6,28107275,187642
OK,144,18,837,144,2014-10-01T08:25:00,6,28107724,187642
OK,62,42,837,62,2014-10-01T08:30:00,1,28108163,187642
OK,168,15,837,168,2014-10-01T08:35:00,3,28108612,187642
OK,150,17,837,150,2014-10-01T08:40:00,4,28109042,187642
OK,133,19,837,133,2014-10-01T08:45:00,0,28109489,187642
OK,106,24,837,106,2014-10-01T08:50:00,2,28109835,187642
OK,97,27,837,97,2014-10-01T08:55:00,1,28110281,187642
OK,97,27,837,97,2014-10-01T09:00:00,0,28110706,187642
OK,97,27,837,97,2014-10-01T09:05:00,0,28111153,187642
OK,97,27,837,97,2014-10-01T09:10:00,0,28111583,187642
OK,198,13,837,198,2014-10-01T09:15:00,1,28112031,187642
OK,198,13,837,198,2014-10-01T09:20:00,1,28112374,187642
OK,198,13,837,198,2014-10-01T09:25:00,0,28112821,187642
OK,198,13,837,198,2014-10-01T09:30:00,0,28113247,187642
OK,199,13,837,199,2014-10-01T09:35:00,1,28113694,187642
OK,166,15,837,166,2014-10-01T09:40:00,2,28114127,187642
OK,126,20,837,126,2014-10-01T09:45:00,2,28114575,187642
OK,126,20,837,126,2014-10-01T09:50:00,4,28114931,187642
OK,141,18,837,141,2014-10-01T09:55:00,3,28115378,187642
OK,164,16,837,164,2014-10-01T10:00:00,2,28115792,187642
OK,172,15,837,172,2014-10-01T10:05:00,3,28116239,187642
OK,172,15,837,172,2014-10-01T10:10:00,2,28116649,187642
OK,172,15,837,172,2014-10-01T10:15:00,0,28117096,187642
OK,131,20,837,131,2014-10-01T10:20:00,2,28117522,187642
OK,175,15,837,175,2014-10-01T10:25:00,1,28117970,187642
OK,151,17,837,151,2014-10-01T10:30:00,1,28118415,187642
OK,108,24,837,108,2014-10-01T10:35:00,3,28118862,187642
OK,90,29,837,90,2014-10-01T10:40:00,2,28119306,187642
OK,151,17,837,151,2014-10-01T10:45:00,0,28119754,187642
OK,145,18,837,145,2014-10-01T10:50:00,2,28120202,187642
OK,145,18,837,145,2014-10-01T10:55:00,2,28120651,187642
OK,142,18,837,142,2014-10-01T11:00:00,2,28121036,187642
OK,148,17,837,148,2014-10-01T11:05:00,4,28121483,187642
OK,159,16,837,159,2014-10-01T11:10:00,3,28121922,187642
OK,159,16,837,159,2014-10-01T11:15:00,1,28122370,187642
OK,121,21,837,121,2014-10-01T11:20:00,2,28122812,187642
OK,130,20,837,130,2014-10-01T11:25:00,4,28123260,187642
OK,134,19,837,134,2014-10-01T11:30:00,3,28123694,187642
OK,134,19,837,134,2014-10-01T11:35:00,1,28124141,187642
OK,134,19,837,134,2014-10-01T11:40:00,0,28124547,187642
OK,99,26,837,99,2014-10-01T11:45:00,1,28124992,187642
OK,102,25,837,102,2014-10-01T11:50:00,2,28125421,187642
OK,106,24,837,106,2014-10-01T11:55:00,1,28125870,187642
OK,149,17,837,149,2014-10-01T12:00:00,1,28126224,187642
OK,152,17,837,152,2014-10-01T12:05:00,2,28126671,187642
OK,132,19,837,132,2014-10-01T12:10:00,1,28127120,187642
OK,132,19,837,132,2014-10-01T12:15:00,1,28127569,187642
OK,132,19,837,132,2014-10-01T12:20:00,0,28127999,187642
OK,132,19,837,132,2014-10-01T12:25:00,0,28128446,187642
OK,132,19,837,132,2014-10-01T12:30:00,0,28128882,187642
OK,132,19,837,132,2014-10-01T12:35:00,0,28129330,187642
OK,93,28,837,93,2014-10-01T12:40:00,2,28129765,187642
OK,93,28,837,93,2014-10-01T12:45:00,2,28130213,187642
OK,178,14,837,178,2014-10-01T12:50:00,1,28130643,187642
OK,188,13,837,188,2014-10-01T12:55:00,2,28131090,187642
OK,174,15,837,174,2014-10-01T13:00:00,2,28131529,187642
OK,150,17,837,150,2014-10-01T13:05:00,1,28131976,187642
OK,150,17,837,150,2014-10-01T13:10:00,0,28132415,187642
OK,145,18,837,145,2014-10-01T13:15:00,2,28132861,187642
OK,145,18,837,145,2014-10-01T13:20:00,2,28133299,187642
OK,150,17,837,150,2014-10-01T13:25:00,1,28133748,187642
OK,150,17,837,150,2014-10-01T13:30:00,1,28134187,187642
OK,142,18,837,142,2014-10-01T13:35:00,1,28134636,187642
OK,142,18,837,142,2014-10-01T13:40:00,1,28135056,187642
OK,98,26,837,98,2014-10-01T13:45:00,1,28135504,187642
OK,148,17,837,148,2014-10-01T13:50:00,3,28135941,187642
OK,148,17,837,148,2014-10-01T13:55:00,3,28136390,187642
OK,174,15,837,174,2014-10-01T14:00:00,2,28136830,187642
OK,118,22,837,118,2014-10-01T14:05:00,2,28137279,187642
OK,137,19,837,137,2014-10-01T14:10:00,2,28137714,187642
OK,137,19,837,137,2014-10-01T14:15:00,4,28138162,187642
OK,79,33,837,79,2014-10-01T14:20:00,1,28138591,187642
OK,95,27,837,95,2014-10-01T14:25:00,1,28139039,187642
OK,98,26,837,98,2014-10-01T14:30:00,2,28139451,187642
OK,116,22,837,116,2014-10-01T14:35:00,2,28139899,187642
OK,128,20,837,128,2014-10-01T14:40:00,3,28140342,187642
OK,128,20,837,128,2014-10-01T14:45:00,3,28140790,187642
OK,170,15,837,170,2014-10-01T14:50:00,1,28141218,187642
OK,79,33,837,79,2014-10-01T14:55:00,2,28141665,187642
OK,74,35,837,74,2014-10-01T15:00:00,3,28142095,187642
OK,68,38,837,68,2014-10-01T15:05:00,1,28142542,187642
OK,97,27,837,97,2014-10-01T15:10:00,2,28142971,187642
OK,127,20,837,127,2014-10-01T15:15:00,1,28143418,187642
OK,127,20,837,127,2014-10-01T15:20:00,0,28143866,187642
OK,127,20,837,127,2014-10-01T15:25:00,0,28144315,187642
OK,77,34,837,77,2014-10-01T15:30:00,1,28144740,187642
OK,77,34,837,77,2014-10-01T15:35:00,1,28145150,187642
OK,138,19,837,138,2014-10-01T15:40:00,1,28145599,187642
OK,135,19,837,135,2014-10-01T15:45:00,3,28146048,187642
OK,135,19,837,135,2014-10-01T15:50:00,3,28146497,187642
OK,182,14,837,182,2014-10-01T15:55:00,0,28146909,187642
OK,128,20,837,128,2014-10-01T16:00:00,1,28147349,187642
OK,128,20,837,128,2014-10-01T16:05:00,1,28147798,187642
OK,128,20,837,128,2014-10-01T16:10:00,0,28148201,187642
OK,88,29,837,88,2014-10-01T16:15:00,3,28148648,187642
OK,108,24,837,108,2014-10-01T16:20:00,6,28149089,187642
OK,142,18,837,142,2014-10-01T16:25:00,5,28149536,187642
OK,143,18,837,143,2014-10-01T16:30:00,2,28149964,187642
OK,144,18,837,144,2014-10-01T16:35:00,0,28150411,187642
OK,152,17,837,152,2014-10-01T16:40:00,3,28150831,187642
OK,152,17,837,152,2014-10-01T16:45:00,3,28151278,187642
OK,167,15,837,167,2014-10-01T16:50:00,0,28151727,187642
OK,167,15,837,167,2014-10-01T17:00:00,0,28152176,187642
OK,135,19,837,135,2014-10-01T17:05:00,1,28152622,187642
OK,135,19,837,135,2014-10-01T17:10:00,0,28153069,187642
OK,135,19,837,135,2014-10-01T17:15:00,0,28153518,187642
OK,135,19,837,135,2014-10-01T17:20:00,0,28153931,187642
OK,100,26,837,100,2014-10-01T17:25:00,1,28154377,187642
OK,100,26,837,100,2014-10-01T17:30:00,0,28154819,187642
OK,135,19,837,135,2014-10-01T17:35:00,1,28155267,187642
OK,135,19,837,135,2014-10-01T17:40:00,1,28155688,187642
OK,97,27,837,97,2014-10-01T17:45:00,1,28156134,187642
OK,97,27,837,97,2014-10-01T17:50:00,1,28156583,187642
OK,97,27,837,97,2014-10-01T17:55:00,0,28157021,187642
OK,97,27,837,97,2014-10-01T18:00:00,0,28157453,187642
OK,97,27,837,97,2014-10-01T18:05:00,0,28157899,187642
OK,97,27,837,97,2014-10-01T18:10:00,0,28158343,187642
OK,97,27,837,97,2014-10-01T18:15:00,0,28158790,187642
OK,97,27,837,97,2014-10-01T18:20:00,0,28159235,187642
OK,97,27,837,97,2014-10-01T18:25:00,0,28159571,187642
OK,97,27,837,97,2014-10-01T18:30:00,0,28160019,187642
OK,97,27,837,97,2014-10-01T18:35:00,0,28160468,187642
OK,97,27,837,97,2014-10-01T18:40:00,0,28160907,187642
OK,97,27,837,97,2014-10-01T18:45:00,0,28161355,187642
OK,97,27,837,97,2014-10-01T18:50:00,0,28161773,187642
OK,97,27,837,97,2014-10-01T18:55:00,0,28162221,187642
OK,150,17,837,150,2014-10-01T19:00:00,1,28162623,187642
OK,150,17,837,150,2014-10-01T19:05:00,1,28163055,187642
OK,138,19,837,138,2014-10-01T19:10:00,3,28163502,187642
OK,138,19,837,138,2014-10-01T19:15:00,4,28163951,187642
OK,129,20,837,129,2014-10-01T19:20:00,2,28164384,187642
OK,118,22,837,118,2014-10-01T19:25:00,1,28164831,187642
OK,118,22,837,118,2014-10-01T19:30:00,0,28165258,187642
OK,118,22,837,118,2014-10-01T19:35:00,0,28165704,187642
OK,118,22,837,118,2014-10-01T19:40:00,0,28166145,187642
OK,118,22,837,118,2014-10-01T19:45:00,0,28166507,187642
OK,118,22,837,118,2014-10-01T19:50:00,0,28166956,187642
OK,118,22,837,118,2014-10-01T19:55:00,0,28167385,187642
OK,118,22,837,118,2014-10-01T20:00:00,0,28167819,187642
OK,118,22,837,118,2014-10-01T20:05:00,0,28168267,187642
OK,118,22,837,118,2014-10-01T20:10:00,0,28168712,187642
OK,140,18,837,140,2014-10-01T20:15:00,1,28169161,187642
OK,88,29,837,88,2014-10-01T20:20:00,1,28169609,187642
OK,88,29,837,88,2014-10-01T20:25:00,0,28170035,187642
OK,88,29,837,88,2014-10-01T20:30:00,0,28170480,187642
OK,88,29,837,88,2014-10-01T20:35:00,0,28170928,187642
OK,50,52,837,50,2014-10-01T20:40:00,1,28171365,187642
OK,50,52,837,50,2014-10-01T20:45:00,0,28171811,187642
OK,50,52,837,50,2014-10-01T20:50:00,0,28172259,187642
OK,155,16,837,155,2014-10-01T20:55:00,1,28172705,187642
OK,155,16,837,155,2014-10-01T21:00:00,1,28173151,187642
OK,99,26,837,99,2014-10-01T21:05:00,1,28173600,187642
OK,99,26,837,99,2014-10-01T21:10:00,1,28174041,187642
OK,99,26,837,99,2014-10-01T21:15:00,0,28174490,187642
OK,99,26,837,99,2014-10-01T21:20:00,0,28174916,187642
OK,166,15,837,166,2014-10-01T21:25:00,1,28175312,187642
OK,166,15,837,166,2014-10-01T21:30:00,1,28175761,187642
OK,166,15,837,166,2014-10-01T21:35:00,0,28176210,187642
OK,166,15,837,166,2014-10-01T21:40:00,0,28176659,187642
OK,166,15,837,166,2014-10-01T21:45:00,0,28177023,187642
OK,166,15,837,166,2014-10-01T21:50:00,0,28177455,187642
OK,166,15,837,166,2014-10-01T21:55:00,0,28177901,187642
OK,166,15,837,166,2014-10-01T22:00:00,0,28178350,187642
OK,166,15,837,166,2014-10-01T22:05:00,0,28178797,187642
OK,166,15,837,166,2014-10-01T22:10:00,0,28179233,187642
OK,166,15,837,166,2014-10-01T22:15:00,0,28179674,187642
OK,166,15,837,166,2014-10-01T22:20:00,0,28180121,187642
OK,134,19,837,134,2014-10-01T22:25:00,1,28180520,187642
OK,120,21,837,120,2014-10-01T22:30:00,1,28180968,187642
OK,120,21,837,120,2014-10-01T22:35:00,0,28181392,187642
OK,120,21,837,120,2014-10-01T22:40:00,0,28181840,187642
OK,120,21,837,120,2014-10-01T22:45:00,0,28182287,187642
OK,120,21,837,120,2014-10-01T22:50:00,0,28182736,187642
OK,120,21,837,120,2014-10-01T22:55:00,0,28183153,187642
OK,120,21,837,120,2014-10-01T23:00:00,0,28183586,187642
OK,120,21,837,120,2014-10-01T23:05:00,0,28184031,187642
OK,120,21,837,120,2014-10-01T23:10:00,0,28184480,187642
OK,120,21,837,120,2014-10-01T23:15:00,0,28184915,187642
OK,120,21,837,120,2014-10-01T23:20:00,0,28185363,187642
OK,120,21,837,120,2014-10-01T23:25:00,0,28185794,187642
OK,120,21,837,120,2014-10-01T23:30:00,0,28186186,187642
OK,120,21,837,120,2014-10-01T23:40:00,0,28187033,187642
OK,120,21,837,120,2014-10-01T23:45:00,0,28187475,187642
OK,120,21,837,120,2014-10-01T23:55:00,0,28188365,187642
OK,120,21,837,120,2014-10-02T00:00:00,0,28188801,187642
OK,120,21,837,120,2014-10-02T00:05:00,0,28189250,187642
OK,120,21,837,120,2014-10-02T00:10:00,0,28189674,187642
OK,120,21,837,120,2014-10-02T00:15:00,0,28190121,187642
OK,120,21,837,120,2014-10-02T00:20:00,0,28190476,187642
OK,120,21,837,120,2014-10-02T00:25:00,0,28190923,187642
OK,120,21,837,120,2014-10-02T00:30:00,0,28191372,187642
OK,120,21,837,120,2014-10-02T00:35:00,0,28191680,187642
OK,120,21,837,120,2014-10-02T00:40:00,0,28192127,187642
OK,120,21,837,120,2014-10-02T00:45:00,0,28192561,187642
OK,120,21,837,120,2014-10-02T00:50:00,0,28193004,187642
OK,120,21,837,120,2014-10-02T00:55:00,0,28193371,187642
OK,120,21,837,120,2014-10-02T01:05:00,0,28194269,187642
OK,120,21,837,120,2014-10-02T01:15:00,0,28194718,187642
OK,120,21,837,120,2014-10-02T01:20:00,0,28195403,187642
OK,120,21,837,120,2014-10-02T01:30:00,0,28195852,187642
OK,120,21,837,120,2014-10-02T01:35:00,0,28196585,187642
OK,120,21,837,120,2014-10-02T01:40:00,0,28197010,187642
OK,120,21,837,120,2014-10-02T01:45:00,0,28197457,187642
OK,120,21,837,120,2014-10-02T01:50:00,0,28197905,187642
OK,120,21,837,120,2014-10-02T01:55:00,0,28198353,187642
OK,130,20,837,130,2014-10-02T02:05:00,1,28198802,187642
OK,130,20,837,130,2014-10-02T02:10:00,0,28199616,187642
OK,130,20,837,130,2014-10-02T02:15:00,0,28200058,187642
OK,130,20,837,130,2014-10-02T02:20:00,0,28200501,187642
OK,130,20,837,130,2014-10-02T02:25:00,0,28200950,187642
OK,130,20,837,130,2014-10-02T02:30:00,0,28201381,187642
OK,130,20,837,130,2014-10-02T02:45:00,0,28202279,187642
OK,130,20,837,130,2014-10-02T02:50:00,0,28202721,187642
OK,130,20,837,130,2014-10-02T02:55:00,0,28203169,187642
OK,130,20,837,130,2014-10-02T03:00:00,0,28203604,187642
OK,130,20,837,130,2014-10-02T03:10:00,0,28204053,187642
OK,130,20,837,130,2014-10-02T03:25:00,0,28204502,187642
OK,130,20,837,130,2014-10-02T03:30:00,0,28204951,187642
OK,58,45,837,58,2014-10-02T03:35:00,0,28205381,187642
OK,58,45,837,58,2014-10-02T03:40:00,0,28205826,187642
OK,58,45,837,58,2014-10-02T03:45:00,0,28206209,187642
OK,58,45,837,58,2014-10-02T03:55:00,0,28207107,187642
OK,111,23,837,111,2014-10-02T04:00:00,1,28207529,187642
OK,111,23,837,111,2014-10-02T04:05:00,1,28207975,187642
OK,201,13,837,201,2014-10-02T04:10:00,1,28208405,187642
OK,201,13,837,201,2014-10-02T04:15:00,1,28208851,187642
OK,201,13,837,201,2014-10-02T04:20:00,0,28209290,187642
OK,201,13,837,201,2014-10-02T04:25:00,0,28209738,187642
OK,175,15,837,175,2014-10-02T04:30:00,2,28210162,187642
OK,175,15,837,175,2014-10-02T04:35:00,2,28210610,187642
OK,82,32,837,82,2014-10-02T04:40:00,1,28211038,187642
OK,82,32,837,82,2014-10-02T04:45:00,0,28211479,187642
OK,82,32,837,82,2014-10-02T04:50:00,0,28211857,187642
OK,151,17,837,151,2014-10-02T04:55:00,5,28212306,187642
OK,171,15,837,171,2014-10-02T05:00:00,2,28212735,187642
OK,108,24,837,108,2014-10-02T05:05:00,2,28213184,187642
OK,111,23,837,111,2014-10-02T05:10:00,0,28213623,187642
OK,173,15,837,173,2014-10-02T05:15:00,4,28214071,187642
OK,135,19,837,135,2014-10-02T05:20:00,0,28214487,187642
OK,115,22,837,115,2014-10-02T05:25:00,2,28214933,187642
OK,115,22,837,115,2014-10-02T05:30:00,0,28215352,187642
OK,169,15,837,169,2014-10-02T05:40:00,2,28215798,187642
OK,169,15,837,169,2014-10-02T05:45:00,2,28216577,187642
OK,169,15,837,169,2014-10-02T05:50:00,0,28217024,187642
OK,155,16,837,155,2014-10-02T05:55:00,2,28217473,187642
OK,170,15,837,170,2014-10-02T06:00:00,4,28217912,187642
OK,198,13,837,198,2014-10-02T06:05:00,7,28218361,187642
OK,218,12,837,218,2014-10-02T06:10:00,2,28218783,187642
OK,199,13,837,199,2014-10-02T06:15:00,4,28219230,187642
OK,132,19,837,132,2014-10-02T06:20:00,0,28219605,187642
OK,221,11,837,221,2014-10-02T06:25:00,1,28220052,187642
OK,143,18,837,143,2014-10-02T06:30:00,4,28220488,187642
OK,130,20,837,130,2014-10-02T06:35:00,3,28220935,187642
OK,274,9,837,274,2014-10-02T06:40:00,3,28221325,187642
OK,147,17,837,147,2014-10-02T06:45:00,2,28221602,187642
OK,75,35,837,75,2014-10-02T07:00:00,4,28222196,187642
OK,97,27,837,97,2014-10-02T07:05:00,3,28222645,187642
OK,96,27,837,96,2014-10-02T07:10:00,2,28223078,187642
OK,96,27,837,96,2014-10-02T07:15:00,0,28223512,187642
OK,96,27,837,96,2014-10-02T07:20:00,0,28223959,187642
OK,116,22,837,116,2014-10-02T07:25:00,1,28224314,187642
OK,116,22,837,116,2014-10-02T07:30:00,0,28224763,187642
OK,163,16,837,163,2014-10-02T07:35:00,1,28225212,187642
OK,163,16,837,163,2014-10-02T07:40:00,0,28225538,187642
OK,145,18,837,145,2014-10-02T07:50:00,6,28226424,187642
OK,112,23,837,112,2014-10-02T07:55:00,2,28226873,187642
OK,108,24,837,108,2014-10-02T08:00:00,0,28227291,187642
OK,119,22,837,119,2014-10-02T08:05:00,0,28227737,187642
OK,119,22,837,119,2014-10-02T08:10:00,0,28228098,187642
OK,149,17,837,149,2014-10-02T08:15:00,3,28228545,187642
OK,149,17,837,149,2014-10-02T08:20:00,0,28228957,187642
OK,149,17,837,149,2014-10-02T08:25:00,0,28229404,187642
OK,149,17,837,149,2014-10-02T08:30:00,0,28229757,187642
OK,136,19,837,136,2014-10-02T08:35:00,3,28230203,187642
OK,167,15,837,167,2014-10-02T08:40:00,0,28230576,187642
OK,167,15,837,167,2014-10-02T08:45:00,0,28231018,187642
OK,124,21,837,124,2014-10-02T08:50:00,5,28231442,187642
OK,125,21,837,125,2014-10-02T08:55:00,1,28231890,187642
OK,126,20,837,126,2014-10-02T09:00:00,3,28232234,187642
OK,125,21,837,125,2014-10-02T09:10:00,0,28232681,187642
OK,127,20,837,127,2014-10-02T09:15:00,1,28233130,187642
OK,127,20,837,127,2014-10-02T09:20:00,0,28233555,187642
OK,161,16,837,161,2014-10-02T09:25:00,1,28234003,187642
OK,161,16,837,161,2014-10-02T09:30:00,0,28234338,187642
OK,106,24,837,106,2014-10-02T09:35:00,1,28234785,187642
OK,106,24,837,106,2014-10-02T09:40:00,0,28235212,187642
OK,126,20,837,126,2014-10-02T09:45:00,0,28235661,187642
OK,126,20,837,126,2014-10-02T09:50:00,0,28236105,187642
OK,177,14,837,177,2014-10-02T09:55:00,1,28236551,187642
OK,177,14,837,177,2014-10-02T10:00:00,1,28236956,187642
OK,177,14,837,177,2014-10-02T10:05:00,0,28237402,187642
OK,177,14,837,177,2014-10-02T10:10:00,0,28237850,187642
OK,150,17,837,150,2014-10-02T10:15:00,1,28238298,187642
OK,157,16,837,157,2014-10-02T10:20:00,2,28238739,187642
OK,165,15,837,165,2014-10-02T10:25:00,1,28239187,187642
OK,165,15,837,165,2014-10-02T10:30:00,0,28239618,187642
OK,69,38,837,69,2014-10-02T10:35:00,1,28240066,187642
OK,69,38,837,69,2014-10-02T10:40:00,1,28240511,187642
OK,69,38,837,69,2014-10-02T10:45:00,0,28240959,187642
OK,69,38,837,69,2014-10-02T10:50:00,0,28241392,187642
OK,196,13,837,196,2014-10-02T10:55:00,4,28241839,187642
OK,196,13,837,196,2014-10-02T11:00:00,4,28242237,187642
OK,196,13,837,196,2014-10-02T11:05:00,0,28242684,187642
OK,196,13,837,196,2014-10-02T11:15:00,0,28243133,187642
OK,91,28,837,91,2014-10-02T11:20:00,1,28243897,187642
OK,91,28,837,91,2014-10-02T11:25:00,0,28244326,187642
OK,91,28,837,91,2014-10-02T11:30:00,0,28244774,187642
OK,162,16,837,162,2014-10-02T11:35:00,2,28245223,187642
OK,137,19,837,137,2014-10-02T11:40:00,1,28245631,187642
OK,137,19,837,137,2014-10-02T11:45:00,0,28246078,187642
OK,133,19,837,133,2014-10-02T11:50:00,6,28246515,187642
OK,162,16,837,162,2014-10-02T11:55:00,3,28246964,187642
OK,162,16,837,162,2014-10-02T12:00:00,0,28247410,187642
OK,162,16,837,162,2014-10-02T12:05:00,0,28247842,187642
OK,162,16,837,162,2014-10-02T12:10:00,0,28248289,187642
OK,71,37,837,71,2014-10-02T12:15:00,1,28248737,187642
OK,71,37,837,71,2014-10-02T12:20:00,1,28249165,187642
OK,68,38,837,68,2014-10-02T12:25:00,1,28249608,187642
OK,68,38,837,68,2014-10-02T12:30:00,0,28250027,187642
OK,68,38,837,68,2014-10-02T12:35:00,0,28250425,187642
OK,144,18,837,144,2014-10-02T12:45:00,1,28251205,187642
OK,139,18,837,139,2014-10-02T13:20:00,2,28251750,187642
OK,150,17,837,150,2014-10-02T13:30:00,2,28252334,187642
OK,147,17,837,147,2014-10-02T13:35:00,1,28252776,187642
OK,147,17,837,147,2014-10-02T13:40:00,0,28253193,187642
OK,85,30,837,85,2014-10-02T13:45:00,1,28253642,187642
OK,85,30,837,85,2014-10-02T13:50:00,1,28254048,187642
OK,219,12,837,219,2014-10-02T13:55:00,3,28254368,187642
OK,84,31,837,84,2014-10-02T14:10:00,1,28254945,187642
OK,120,21,837,120,2014-10-02T14:15:00,2,28255394,187642
OK,147,17,837,147,2014-10-02T14:20:00,3,28255822,187642
OK,177,14,837,177,2014-10-02T14:25:00,1,28256271,187642
OK,177,14,837,177,2014-10-02T14:30:00,4,28256699,187642
OK,119,22,837,119,2014-10-02T14:35:00,0,28257148,187642
OK,119,22,837,119,2014-10-02T14:40:00,0,28257589,187642
OK,106,24,837,106,2014-10-02T14:45:00,1,28258037,187642
OK,107,24,837,107,2014-10-02T14:50:00,2,28258470,187642
OK,127,20,837,127,2014-10-02T14:55:00,3,28258916,187642
OK,143,18,837,143,2014-10-02T15:00:00,2,28259365,187642
OK,115,22,837,115,2014-10-02T15:05:00,2,28259812,187642
OK,84,31,837,84,2014-10-02T15:10:00,1,28260245,187642
OK,126,20,837,126,2014-10-02T15:15:00,3,28260694,187642
OK,126,20,837,126,2014-10-02T15:20:00,3,28261134,187642
OK,145,18,837,145,2014-10-02T15:25:00,1,28261516,187642
OK,145,18,837,145,2014-10-02T15:30:00,0,28261946,187642
OK,170,15,837,170,2014-10-02T15:35:00,2,28262393,187642